Home > Weather > Riverview > Past weeks

Flag for Canada Past Weather in Riverview, New Brunswick, Canada — Yesterday and Last 2 Weeks

Now
41 °F

Passing clouds.


Feels Like: 36 °F
Forecast: 40 / 65 °F
Wind: 7 mph from Northeast

Location: Moncton

Current Time: May 28, 2016 at 11:14:04 PM

Latest Report: May 28, 2016 at 10:00 PM


Visibility: 15 mi

Pressure: 30.27 "Hg

Humidity: 93%

Dew Point: 39 °F

Location of RiverviewLocation

Past Weather in Riverview — Graph

°F

Riverview Temperature Yesterday

Maximum temperature yesterday: 57 °F (at 6:00 PM)
Minimum temperature yesterday: 39 °F (at 5:00 AM)
Average temperature yesterday: 48 °F

High & Low Weather Summary for the Past Weeks

 TemperatureHumidityPressure
High81 °F (May 21, 2:00 PM)100% (May 14, 11:00 AM)30.29 "Hg (May 14, 11:00 AM)
Low37 °F (May 17, 6:00 AM)21% (May 21, 6:00 PM)29.37 "Hg (May 16, 1:00 AM)
Average54 °F75%29.89 "Hg
* Reported May 13 10:00 PM — May 28 10:00 PM, Riverview, Weather by CustomWeather, © 2016

Note: Actual official high and low records may vary slightly from our data, if they occured in-between our weather recording intervals... More about our weather records

Advertising

Riverview Weather History for the Previous 24 Hours

Scroll right to see more
 ConditionsComfort  
Time TempWeatherWind HumidityBarometerVisibility
10:00 PM
Sat, May 28
41 °FPassing clouds.7 mph93%30.27 "Hg15 mi
9:00 PM45 °FPassing clouds.7 mph87%30.25 "Hg15 mi
8:00 PM48 °FPassing clouds.13 mph76%30.22 "Hg15 mi
7:00 PM50 °FPartly sunny.13 mph76%30.21 "Hg15 mi
6:00 PM54 °FBroken clouds.10 mph72%30.18 "Hg15 mi
5:00 PM55 °FPartly sunny.13 mph67%30.16 "Hg15 mi
4:00 PM54 °FMostly cloudy.16 mph77%30.15 "Hg15 mi
3:00 PM54 °FBroken clouds.18 mph77%30.12 "Hg15 mi
2:00 PM50 °FMostly cloudy.14 mph94%30.10 "Hg15 mi
1:00 PM52 °FLow clouds.14 mph94%30.08 "Hg12 mi
12:00 PM61 °FMore clouds than sun.6 mph83%30.05 "Hg15 mi
11:00 AM57 °FMostly cloudy.7 mph94%30.03 "Hg15 mi
10:00 AM55 °FLow clouds.8 mph94%30.03 "Hg10 mi
9:00 AM54 °FFog.9 mph94%30.02 "Hg2 mi
8:00 AM54 °FDrizzle. Fog.8 mph94%30.02 "Hg1 mi
7:00 AM52 °FFog.9 mph100%29.98 "Hg2 mi
6:00 AM52 °FFog.9 mph100%29.98 "Hg6 mi
5:00 AM52 °FLow clouds.8 mph100%29.96 "Hg15 mi
4:00 AM52 °FMostly cloudy.10 mph100%29.98 "Hg15 mi
3:00 AM52 °FMostly cloudy.8 mph100%29.98 "Hg15 mi
2:00 AM54 °FPassing clouds.8 mph94%29.99 "Hg15 mi
1:46 AM54 °FOvercast.9 mph94%30.01 "Hg15 mi
1:00 AM52 °FLight rain. Overcast.5 mph94%30.03 "Hg15 mi
12:00 AM54 °FPartly cloudy.2 mph88%30.01 "Hg15 mi
11:00 PM
Fri, May 27
52 °FPassing clouds.12 mph94%29.99 "Hg15 mi
Weather by CustomWeather, © 2016

See weather overviewHow to use our weather pages